Mountain Home, ID

12:15 AM MDT on September 26, 2017 (GMT -0600)
Mountain Home Air Force Base

Weather History for KMUO - April, 2013

Change the Weather History Date:

Friday, April 19, 2013

  Actual Average Record
Temperature  
Mean Temperature 46 °F 50 °F  
Max Temperature 56 °F 63 °F 89 °F (1994)
Min Temperature 36 °F 36 °F 18 °F (1909)
Degree Days  
Heating Degree Days 19 15  
Month to date heating degree days 332 326  
Cooling Degree Days 0 0  
Month to date cooling degree days 0 0  
Moisture  
Dew Point 38 °F    
Average Humidity 69    
Maximum Humidity 93    
Minimum Humidity 43    
Precipitation  
Precipitation 0.05 in 0.03 in 0.19 in (2000)
Month to date precipitation 0.41 0.67  
Sea Level Pressure  
Sea Level Pressure 30.10 in    
Wind  
Wind Speed 5 mph (WNW)    
Max Wind Speed 21 mph    
Max Gust Speed 22 mph    
Visibility 10 miles    
Events Rain    
T = Trace of Precipitation, MM = Missing Value Source: NWS Daily Summary

Daily Weather History Graph

Daily Weather History Graph

Search for Another Location

Airport or City:

Trip Planner

Search our weather history database for the weather conditions in past years. The results will help you decide how hot, cold, wet, or windy it might be!

Date:

Astronomy

Apr. 19, 2013 Rise Set
Actual Time 6:54 AM MDT 8:31 PM MDT
Civil Twilight 6:24 AM MDT 9:01 PM MDT
Nautical Twilight 5:48 AM MDT 9:37 PM MDT
Astronomical Twilight 5:09 AM MDT 10:16 PM MDT
Moon 2:10 PM MDT (4/19) 3:22 AM MDT (4/19)
Length of Visible Light 14h 36m
Length of Day
13h 36m
Waxing Gibbous, 62% of the Moon is Illuminated
Apr 19
Waxing Gibbous
Apr 25
Full
May 2
Last Quarter
May 9
New
May 17
First Quarter

Hourly Weather History & Observations

Time (MDT) Temp. Windchill Dew Point Humidity Pressure Visibility Wind Dir Wind Speed Gust Speed Precip Events Conditions
12:48 AM 44.6 °F 43.1 °F 24.8 °F 46% 30.24 in 10.0 mi West 3.5 mph - N/A   Overcast
12:58 AM 44.2 °F - 24.1 °F 45% 30.24 in 10.0 mi WSW 1.2 mph - N/A   Overcast
1:13 AM 42.8 °F - 23.0 °F 46% 30.23 in 10.0 mi Calm Calm - N/A   Overcast
1:38 AM 44.6 °F - 23.0 °F 43% 30.23 in 10.0 mi West 2.3 mph - N/A   Overcast
1:48 AM 44.6 °F - 23.0 °F 43% 30.23 in 10.0 mi WNW 1.2 mph - N/A   Overcast
1:58 AM 43.9 °F 42.3 °F 23.7 °F 45% 30.22 in 10.0 mi West 3.5 mph - N/A   Overcast
2:58 AM 41.0 °F - 25.5 °F 54% 30.22 in 10.0 mi Calm Calm - N/A   Scattered Clouds
3:03 AM 41.0 °F - 24.8 °F 53% 30.20 in 10.0 mi Calm Calm - N/A   Mostly Cloudy
3:18 AM 39.2 °F - 24.8 °F 56% 30.20 in 10.0 mi Calm Calm - N/A   Scattered Clouds
3:58 AM 36.7 °F - 23.0 °F 58% 30.22 in 10.0 mi ENE 2.3 mph - N/A   Overcast
4:58 AM 38.1 °F 34.6 °F 24.6 °F 58% 30.19 in 10.0 mi East 4.6 mph - N/A   Overcast
5:23 AM 41.0 °F 37.1 °F 24.8 °F 53% 30.18 in 10.0 mi East 5.8 mph - N/A   Overcast
5:58 AM 41.5 °F 39.6 °F 26.2 °F 55% 30.17 in 10.0 mi ESE 3.5 mph - N/A   Overcast
6:58 AM 42.1 °F - 25.7 °F 52% 30.17 in 10.0 mi Calm Calm - N/A   Overcast
7:58 AM 44.4 °F 40.0 °F 27.3 °F 51% 30.19 in 10.0 mi West 8.1 mph - N/A   Overcast
8:08 AM 44.6 °F 40.7 °F 28.4 °F 53% 30.19 in 10.0 mi WNW 6.9 mph - N/A   Overcast
8:48 AM 46.4 °F 43.5 °F 33.8 °F 62% 30.19 in 10.0 mi NW 5.8 mph - N/A Rain Light Rain
8:58 AM 45.3 °F 42.3 °F 34.3 °F 65% 30.20 in 10.0 mi NW 5.8 mph - 0.00 in Rain Light Rain
9:43 AM 48.2 °F - 41.0 °F 76% 30.17 in 10.0 mi NNW 3.5 mph - N/A   Light Drizzle
9:48 AM 48.2 °F - 41.0 °F 76% 30.17 in 10.0 mi NNW 3.5 mph - N/A   Overcast
9:58 AM 47.7 °F - 39.9 °F 75% 30.17 in 10.0 mi Variable 2.3 mph - 0.00 in   Mostly Cloudy
10:18 AM 48.2 °F - 39.2 °F 71% 30.16 in 10.0 mi NNW 2.3 mph - N/A   Light Drizzle
10:23 AM 50.0 °F - 39.2 °F 66% 30.16 in 10.0 mi NW 3.5 mph - N/A   Mostly Cloudy
10:33 AM 50.0 °F - 39.2 °F 66% 30.15 in 10.0 mi North 3.5 mph - N/A   Overcast
10:38 AM 50.0 °F - 39.2 °F 66% 30.15 in 10.0 mi NW 2.3 mph - N/A   Overcast
10:58 AM 50.4 °F - 39.0 °F 65% 30.17 in 10.0 mi NNW 2.3 mph - 0.00 in   Overcast
11:28 AM 51.8 °F - 39.2 °F 62% 30.14 in 10.0 mi WNW 4.6 mph - N/A   Overcast
11:38 AM 51.8 °F - 39.2 °F 62% 30.14 in 10.0 mi NNE 4.6 mph - N/A   Overcast
11:43 AM 51.8 °F - 39.2 °F 62% 30.13 in 10.0 mi North 6.9 mph - N/A   Overcast
11:58 AM 52.0 °F - 38.3 °F 60% 30.12 in 10.0 mi North 5.8 mph - N/A   Overcast
12:03 PM 51.8 °F - 39.2 °F 62% 30.12 in 10.0 mi NW 5.8 mph - N/A   Overcast
12:08 PM 53.6 °F - 39.2 °F 58% 30.12 in 10.0 mi North 6.9 mph - N/A   Overcast
12:58 PM 54.3 °F - 38.1 °F 54% 30.11 in 10.0 mi Variable 1.2 mph - N/A   Overcast
1:58 PM 55.4 °F - 38.5 °F 53% 30.08 in 10.0 mi NNW 4.6 mph - N/A   Overcast
2:03 PM 55.4 °F - 39.2 °F 54% 30.08 in 10.0 mi Variable 2.3 mph - N/A   Light Drizzle
2:08 PM 55.4 °F - 39.2 °F 54% 30.08 in 10.0 mi Variable 3.5 mph - N/A   Light Drizzle
2:13 PM 55.4 °F - 39.2 °F 54% 30.08 in 10.0 mi Variable 6.9 mph - N/A   Light Drizzle
2:18 PM 55.4 °F - 39.2 °F 54% 30.07 in 10.0 mi Variable 4.6 mph - N/A   Light Drizzle
2:23 PM 55.4 °F - 39.2 °F 54% 30.07 in 10.0 mi NNW 6.9 mph - N/A   Light Drizzle
2:28 PM 55.4 °F - 41.0 °F 58% 30.07 in 10.0 mi NW 9.2 mph - N/A Rain Light Rain
2:48 PM 55.4 °F - 41.0 °F 58% 30.07 in 10.0 mi WNW 13.8 mph 19.6 mph N/A Rain Light Rain
2:53 PM 55.4 °F - 41.0 °F 58% 30.07 in 10.0 mi NW 18.4 mph - N/A   Light Drizzle
2:58 PM 55.8 °F - 40.3 °F 56% 30.08 in 10.0 mi NW 20.7 mph - 0.00 in   Light Drizzle
3:03 PM 55.4 °F - 41.0 °F 58% 30.07 in 10.0 mi NW 18.4 mph - N/A   Light Drizzle
3:33 PM 51.8 °F - 44.6 °F 76% 30.06 in 10.0 mi NW 18.4 mph - N/A Rain Light Rain
3:48 PM 51.8 °F - 44.6 °F 76% 30.06 in 10.0 mi NW 15.0 mph - N/A Rain Light Rain
3:58 PM 52.0 °F - 46.0 °F 80% 30.08 in 10.0 mi NW 15.0 mph - 0.00 in Rain Light Rain
4:48 PM 51.8 °F - 46.4 °F 82% 30.05 in 10.0 mi WNW 16.1 mph - N/A Rain Light Rain
4:58 PM 50.5 °F - 46.0 °F 85% 30.07 in 10.0 mi WNW 15.0 mph - 3.93 in Rain Light Rain
5:18 PM 50.0 °F - 44.6 °F 82% 30.04 in 10.0 mi West 12.7 mph 21.9 mph N/A Rain Light Rain
5:43 PM 50.0 °F - 46.4 °F 87% 30.03 in 10.0 mi WNW 11.5 mph - N/A   Light Drizzle
5:48 PM 50.0 °F - 44.6 °F 82% 30.03 in 10.0 mi WNW 10.4 mph - N/A   Mostly Cloudy
5:58 PM 50.5 °F - 45.3 °F 82% 30.03 in 10.0 mi NW 9.2 mph - -   Mostly Cloudy
6:23 PM 51.8 °F - 44.6 °F 76% 30.02 in 10.0 mi WNW 9.2 mph - N/A   Scattered Clouds
6:58 PM 52.0 °F - 43.2 °F 72% 30.02 in 10.0 mi West 4.6 mph - -   Scattered Clouds
7:03 PM 51.8 °F - 44.6 °F 76% 30.01 in 10.0 mi West 5.8 mph - N/A   Mostly Cloudy
7:13 PM 51.8 °F - 44.6 °F 76% 30.01 in 10.0 mi WSW 8.1 mph - N/A   Mostly Cloudy
7:23 PM 50.0 °F - 44.6 °F 82% 30.02 in 10.0 mi West 8.1 mph - N/A   Overcast
7:33 PM 50.0 °F - 44.6 °F 82% 30.02 in 10.0 mi WSW 8.1 mph - N/A Rain Light Rain
7:38 PM 50.0 °F - 44.6 °F 82% 30.01 in 9.0 mi WSW 9.2 mph - N/A Rain Light Rain
7:43 PM 50.0 °F - 44.6 °F 82% 30.01 in 9.0 mi WSW 11.5 mph - N/A Rain Light Rain
7:48 PM 48.2 °F - 44.6 °F 87% 30.00 in 10.0 mi WSW 9.2 mph - N/A Rain Light Rain
7:58 PM 48.4 °F - 44.4 °F 86% 30.02 in 10.0 mi WSW 9.2 mph - -   Overcast
8:03 PM 48.2 °F - 44.6 °F 87% 30.01 in 10.0 mi WSW 8.1 mph - N/A   Mostly Cloudy
8:08 PM 48.2 °F - 44.6 °F 87% 30.01 in 10.0 mi WSW 8.1 mph - N/A Rain Light Rain
8:18 PM 48.2 °F - 44.6 °F 87% 30.01 in 10.0 mi WSW 5.8 mph - N/A Rain Light Rain
8:58 PM 44.4 °F 41.2 °F 42.3 °F 92% 30.04 in 10.0 mi West 5.8 mph - -   Scattered Clouds
9:03 PM 44.6 °F 40.2 °F 42.8 °F 93% 30.02 in 10.0 mi West 8.1 mph - N/A   Mostly Cloudy
9:08 PM 44.6 °F 39.7 °F 42.8 °F 93% 30.03 in 10.0 mi West 9.2 mph - N/A   Mostly Cloudy
9:33 PM 46.4 °F 41.5 °F 44.6 °F 93% 30.05 in 10.0 mi NW 10.4 mph - N/A Rain Light Rain
9:53 PM 48.2 °F - 44.6 °F 87% 30.05 in 10.0 mi NNW 10.4 mph - N/A   Overcast
9:58 PM 47.3 °F - 44.8 °F 91% 30.06 in 10.0 mi NNW 11.5 mph - 0.02 in   Light Drizzle
10:08 PM 46.4 °F 41.5 °F 44.6 °F 93% 30.06 in 10.0 mi NNW 10.4 mph - N/A   Overcast
10:58 PM 46.2 °F 40.5 °F 43.2 °F 89% 30.07 in 10.0 mi WNW 12.7 mph - 0.00 in   Overcast
11:03 PM 46.4 °F 40.7 °F 42.8 °F 87% 30.06 in 10.0 mi WNW 12.7 mph - N/A   Overcast
11:33 PM 46.4 °F 41.5 °F 42.8 °F 87% 30.06 in 10.0 mi NW 10.4 mph - N/A   Overcast
11:58 PM 46.0 °F 41.9 °F 43.0 °F 89% 30.07 in 10.0 mi West 8.1 mph - 0.00 in   Light Drizzle